Burns, OR

1:17 AM PDT on May 25, 2017 (GMT -0700)
Burns Municipal

Weather History for KBNO - May, 2013

Change the Weather History Date:

Tuesday, May 7, 2013

  Actual Average Record
Temperature  
Mean Temperature 59 °F 49 °F  
Max Temperature 75 °F 64 °F 85 °F (1987)
Min Temperature 42 °F 34 °F 20 °F (1990)
Degree Days  
Heating Degree Days 6 16  
Month to date heating degree days 97 119  
Since 1 July heating degree days 6938 7159  
Cooling Degree Days 0 0  
Month to date cooling degree days 0 0  
Year to date cooling degree days 0 0  
Growing Degree Days 8 (Base 50)    
Moisture  
Dew Point 39 °F    
Average Humidity 51    
Maximum Humidity 77    
Minimum Humidity 25    
Precipitation  
Precipitation T in 0.03 in 0.24 in (1977)
Month to date precipitation T 0.24  
Year to date precipitation 1.31 4.47  
Sea Level Pressure  
Sea Level Pressure 29.84 in    
Wind  
Wind Speed 6 mph (West)    
Max Wind Speed 23 mph    
Max Gust Speed 31 mph    
Visibility 10 miles    
Events Rain    
T = Trace of Precipitation, MM = Missing Value Source: NWS Daily Summary

Daily Weather History Graph

Daily Weather History Graph

Search for Another Location

Airport or City:

Trip Planner

Search our weather history database for the weather conditions in past years. The results will help you decide how hot, cold, wet, or windy it might be!

Date:

Astronomy

May. 07, 2013 Rise Set
Actual Time 5:39 AM PDT 8:05 PM PDT
Civil Twilight 5:07 AM PDT 8:37 PM PDT
Nautical Twilight 4:27 AM PDT 9:18 PM PDT
Astronomical Twilight 3:42 AM PDT 10:03 PM PDT
Moon 4:20 AM PDT (5/7) 6:07 PM PDT (5/7)
Length of Visible Light 15h 30m
Length of Day
14h 25m
Waning Crescent, 5% of the Moon is Illuminated
May 7
Waning Crescent
May 9
New
May 17
First Quarter
May 24
Full
May 31
Last Quarter

Hourly Weather History & Observations

Time (PDT) Temp. Windchill Dew Point Humidity Pressure Visibility Wind Dir Wind Speed Gust Speed Precip Events Conditions
12:53 AM 48.9 °F - 36.0 °F 61% 29.81 in 10.0 mi West 3.5 mph - N/A   Partly Cloudy
1:53 AM 48.0 °F - 34.0 °F 58% 29.81 in 10.0 mi WNW 5.8 mph - N/A   Mostly Cloudy
2:53 AM 48.0 °F - 35.1 °F 61% 29.81 in 10.0 mi Calm Calm - N/A   Partly Cloudy
3:53 AM 43.0 °F 38.8 °F 34.0 °F 71% 29.81 in 10.0 mi West 6.9 mph - N/A   Mostly Cloudy
4:53 AM 45.0 °F 41.2 °F 35.1 °F 68% 29.81 in 10.0 mi West 6.9 mph - N/A   Clear
5:53 AM 44.1 °F 42.5 °F 36.0 °F 73% 29.83 in 10.0 mi WSW 3.5 mph - N/A   Overcast
6:53 AM 51.1 °F - 39.0 °F 63% 29.83 in 10.0 mi West 5.8 mph - N/A   Overcast
7:53 AM 59.0 °F - 41.0 °F 51% 29.82 in 10.0 mi WSW 8.1 mph - N/A   Partly Cloudy
8:53 AM 64.0 °F - 37.9 °F 38% 29.83 in 10.0 mi ESE 8.1 mph - N/A   Clear
9:53 AM 68.0 °F - 39.0 °F 35% 29.83 in 10.0 mi Variable 3.5 mph - N/A   Clear
10:53 AM 70.0 °F - 37.9 °F 31% 29.83 in 10.0 mi Variable 3.5 mph - N/A   Clear
11:53 AM 73.0 °F - 35.1 °F 25% 29.82 in 10.0 mi Calm Calm - N/A   Partly Cloudy
12:53 PM 72.0 °F - 36.0 °F 27% 29.80 in 10.0 mi Variable 5.8 mph - N/A   Scattered Clouds
1:53 PM 70.0 °F - 37.9 °F 31% 29.81 in 10.0 mi WSW 9.2 mph - 0.00 in   Overcast
2:53 PM 64.9 °F - 41.0 °F 42% 29.81 in 10.0 mi SW 10.4 mph - 0.00 in   Scattered Clouds
3:42 PM 66.2 °F - 42.8 °F 43% 29.88 in 10.0 mi NW 11.5 mph - 0.00 in Rain Light Rain
3:53 PM 71.1 °F - 42.1 °F 35% 29.82 in 10.0 mi WNW 16.1 mph 25.3 mph 0.00 in   Mostly Cloudy
4:53 PM 71.1 °F - 39.0 °F 31% 29.81 in 10.0 mi WNW 11.5 mph - N/A   Mostly Cloudy
5:53 PM 68.0 °F - 37.0 °F 32% 29.84 in 10.0 mi South 6.9 mph - 0.00 in   Overcast
6:53 PM 60.1 °F - 43.0 °F 53% 29.86 in 10.0 mi West 10.4 mph 31.1 mph 0.00 in Rain Light Rain
7:53 PM 59.0 °F - 44.1 °F 58% 29.88 in 10.0 mi North 18.4 mph 26.5 mph 0.00 in Rain Light Rain
8:53 PM 59.0 °F - 43.0 °F 55% 29.88 in 10.0 mi Calm Calm - 0.00 in   Mostly Cloudy
9:53 PM 51.1 °F - 43.0 °F 74% 29.89 in 10.0 mi Calm Calm - N/A   Partly Cloudy
10:53 PM 54.0 °F - 43.0 °F 66% 29.91 in 10.0 mi Calm Calm - N/A   Mostly Cloudy
11:53 PM 52.0 °F - 44.1 °F 74% 29.92 in 10.0 mi North 3.5 mph - N/A   Overcast